Wind_Speed
35 36 37 38 40 43 45 46 47 47 47 46 46 46 46 46 46 46 46 45 45 45 45 46 47 47 48 49 49 49 49 49 49 49 48 48 48 47 47 47 47 48 49 50 50 50 49 48 46 44 43 42 42 42 43 45 46 48 49 51 52 54 55 55 52 50 49 48 48 48 47 47 48 49 50 50 50 50 50 52 54 55 56 56 56
36 39 41 43 45 47 46 43 43 44 45 47 48 48 49 50 50 49 48 47 46 45 46 46 47 47 48 49 49 49 50 50 50 49 49 49 50 51 51 51 51 51 52 52 51 50 49 48 47 46 44 43 42 43 44 46 47 49 50 51 52 53 53 52 50 49 49 48 48 47 47 48 48 48 49 50 51 51 51 52 54 55 57 58 59
27 30 33 37 42 44 43 42 40 39 40 41 42 42 44 46 47 47 47 47 46 45 45 45 46 46 47 48 49 50 51 52 52 52 53 54 55 55 55 55 54 53 52 51 50 49 49 48 48 48 47 46 44 43 44 45 47 48 48 49 49 50 50 50 50 49 48 48 47 46 46 45 44 44 44 46 48 49 51 53 54 55 56 58 60
20 20 22 25 28 32 35 36 37 37 37 37 38 39 42 44 44 44 45 46 46 45 45 44 44 45 47 48 50 52 53 53 54 55 56 57 57 56 56 55 54 52 51 50 51 52 52 52 50 50 50 51 49 48 47 48 49 49 50 49 49 49 50 50 49 48 47 47 48 47 45 44 44 43 42 42 42 45 48 50 53 54 55 57 58
28 26 26 26 25 26 29 31 33 36 38 39 39 40 42 43 43 43 44 46 47 48 48 46 45 45 46 48 49 50 51 52 53 54 55 55 54 54 54 53 52 51 52 54 55 55 55 54 52 53 54 54 54 55 56 55 54 54 54 53 53 52 51 50 49 48 47 48 49 49 47 45 44 43 41 40 40 41 42 45 49 52 54 55 56
36 34 30 29 32 35 36 36 36 38 40 40 39 39 40 41 41 42 44 45 48 49 49 49 48 48 49 50 51 50 49 49 50 50 51 51 51 51 51 51 53 55 57 59 59 58 57 56 56 56 57 57 58 59 61 61 59 58 56 55 55 54 53 52 50 49 48 48 48 47 47 46 45 43 41 41 40 39 38 41 43 46 49 51 53
41 42 39 38 40 43 44 45 46 43 42 44 44 42 42 43 43 43 44 45 47 49 50 53 55 56 58 59 57 54 52 51 49 50 51 51 50 50 52 54 57 59 61 62 62 62 62 61 61 61 61 61 62 63 64 65 64 62 59 57 56 56 55 54 52 50 50 49 48 47 47 47 47 46 45 45 44 42 41 41 43 44 46 47 49
41 45 47 48 48 47 46 48 50 48 46 47 48 47 46 47 46 46 46 48 48 49 51 53 55 57 60 61 59 57 57 56 56 57 57 55 54 55 57 59 60 61 61 62 62 63 63 64 65 66 66 66 66 66 67 67 66 64 61 59 57 57 57 55 53 52 52 51 50 49 48 49 49 49 48 48 48 49 49 48 49 49 49 49 49
43 44 47 49 50 50 50 52 53 53 52 52 51 52 51 51 51 50 51 53 53 53 53 54 54 56 57 58 57 56 56 57 58 58 58 58 58 59 60 60 60 61 62 63 64 65 66 67 69 70 70 71 70 69 69 67 65 64 62 60 59 58 57 55 54 53 53 53 52 52 51 52 53 53 51 51 52 54 56 58 58 57 57 56 55
46 46 48 50 51 53 55 57 59 59 59 59 59 60 60 59 59 59 59 60 60 58 57 57 58 59 59 59 58 57 57 57 58 59 59 59 58 58 60 62 64 66 67 68 69 70 70 71 71 72 72 72 72 72 70 68 65 63 62 61 60 59 57 56 55 55 55 55 54 54 54 55 55 55 55 55 57 58 62 64 65 66 66 65 63
50 51 52 53 54 56 58 60 61 63 63 64 65 66 67 67 66 66 66 66 65 64 61 60 62 63 64 64 63 61 61 61 61 61 60 59 59 61 65 68 70 72 73 73 73 74 74 74 74 73 73 73 74 73 72 70 67 65 63 61 61 60 59 58 57 57 57 57 57 57 57 57 57 58 59 60 62 65 68 70 72 74 74 72 69
55 55 55 55 55 57 59 61 62 62 63 63 64 65 67 68 69 69 70 70 69 70 69 68 66 66 67 69 70 68 67 67 65 62 61 61 63 67 72 74 76 77 77 77 77 76 76 76 75 75 75 75 75 75 74 72 71 69 66 64 62 62 61 60 59 59 59 60 60 61 61 61 61 62 64 67 69 72 74 76 77 78 76 72 70
57 57 56 55 56 57 60 62 62 63 64 64 64 64 65 67 69 69 69 69 68 71 73 73 73 73 73 75 75 71 67 66 65 63 64 66 70 74 77 79 80 80 79 79 78 77 76 76 75 74 74 74 74 74 74 73 72 71 69 67 66 65 64 63 62 62 62 62 63 64 66 67 68 70 72 74 76 78 79 79 77 74 70 67 67
58 59 58 55 56 58 61 61 61 62 63 63 62 63 64 66 68 69 70 71 73 75 77 78 79 80 77 72 68 64 62 63 65 67 70 74 77 81 82 82 82 81 80 79 78 77 77 76 76 75 74 73 72 72 72 72 71 70 69 69 69 69 69 68 67 66 66 66 66 67 68 70 73 76 78 79 80 79 78 74 70 67 65 63 63
60 60 59 56 56 59 61 62 62 62 62 63 63 63 64 66 69 71 73 74 74 73 75 77 75 72 68 63 61 63 65 68 71 74 77 80 82 84 85 84 82 81 79 78 78 78 78 78 78 77 76 74 73 72 72 71 69 68 69 71 72 72 72 72 72 71 72 72 71 71 71 73 76 78 79 79 78 75 71 67 65 63 62 62 61
65 64 63 61 59 61 62 63 63 63 63 65 66 66 66 67 69 71 71 71 68 65 66 69 67 65 65 66 68 72 74 76 78 80 82 84 85 86 85 83 82 80 79 78 78 78 79 79 79 78 77 77 76 76 75 74 71 71 72 74 75 75 75 75 76 77 77 77 77 76 75 75 75 75 75 74 72 70 68 66 65 64 62 61 61
72 71 70 69 68 67 67 68 69 70 70 71 72 72 71 70 69 70 69 68 67 66 66 68 69 71 73 75 77 79 81 83 84 86 87 88 87 85 83 81 80 79 78 77 77 78 78 78 78 78 77 77 77 77 77 76 73 71 72 75 76 77 76 77 78 78 79 79 78 77 75 73 72 71 71 71 70 69 69 68 67 66 64 64 64
78 77 77 77 77 76 75 75 76 77 77 77 76 74 73 72 72 73 73 73 73 74 74 74 76 77 78 80 81 84 86 88 90 91 91 89 87 84 82 80 79 78 77 76 75 76 77 77 77 77 77 77 78 77 77 75 71 69 72 75 76 76 75 74 75 75 76 77 76 76 74 73 72 71 71 71 71 70 70 69 68 67 67 67 68
81 82 82 83 83 82 82 81 80 79 78 76 75 73 72 72 73 75 78 79 80 81 81 82 82 82 83 85 86 88 91 92 92 91 90 89 87 85 83 82 80 79 77 76 75 76 77 78 78 78 78 78 78 78 78 74 70 71 75 77 76 76 76 75 75 75 76 76 77 76 75 74 73 72 71 71 71 71 71 70 69 69 69 69 70
84 85 85 86 86 86 85 84 83 82 81 79 78 76 76 76 76 78 80 82 84 85 86 87 88 89 90 91 91 92 92 91 91 90 90 89 89 87 86 85 83 81 79 77 77 77 78 79 79 79 79 79 78 78 78 76 75 76 78 78 78 79 78 78 78 77 77 77 78 78 77 76 75 74 73 73 72 72 71 71 71 71 71 72 72
87 87 87 87 87 87 87 86 86 86 87 86 86 85 84 83 84 84 84 85 86 87 88 89 89 91 91 92 92 92 91 90 90 90 90 90 89 88 88 87 84 82 79 78 77 77 78 78 79 78 78 79 79 79 80 79 79 80 80 80 80 81 81 80 80 80 79 79 79 80 80 79 79 78 77 76 75 74 73 73 73 73 73 73 73
88 88 87 87 87 88 89 90 91 92 93 93 92 91 91 90 89 89 88 88 88 89 89 89 89 90 91 91 91 91 90 90 89 88 88 88 87 87 86 85 83 80 78 77 76 76 77 78 78 78 78 79 80 81 82 82 82 82 82 82 83 83 83 83 83 82 82 82 82 82 82 82 82 82 81 80 78 78 77 77 76 76 76 76 76
90 90 90 90 91 92 93 94 94 95 95 95 95 94 94 93 92 92 91 90 90 89 89 89 88 88 88 88 88 87 86 86 85 84 84 85 85 85 84 83 82 80 79 78 77 77 78 79 80 80 80 81 81 82 83 84 84 85 85 86 86 86 86 86 86 86 85 85 85 85 85 85 85 84 84 83 82 82 81 80 80 79 79 78 78
90 91 92 93 93 93 94 93 93 93 93 94 93 93 92 92 91 90 89 88 88 87 87 86 86 85 84 84 84 84 83 82 82 82 83 83 84 85 85 85 84 83 82 81 80 80 81 82 82 83 83 83 83 84 86 86 86 87 87 88 89 90 89 89 89 88 88 88 88 87 87 87 87 86 87 87 86 86 85 84 83 82 81 81 80
88 90 91 91 92 92 92 92 92 92 91 91 90 89 88 88 87 86 86 85 85 85 84 84 84 84 84 83 84 84 84 84 83 84 84 85 86 86 85 85 86 86 85 83 82 83 84 84 85 84 85 86 87 87 88 88 87 88 89 90 91 91 90 90 90 89 89 89 89 89 88 88 88 88 89 89 89 89 88 87 86 85 84 82 80
88 88 89 89 89 90 89 89 89 88 87 87 86 86 86 85 85 85 85 85 85 85 85 85 85 85 85 86 86 86 86 86 85 85 85 85 86 86 86 87 89 90 89 87 87 88 87 88 88 86 86 88 90 89 89 89 89 89 90 90 90 89 89 89 89 89 89 89 90 89 88 88 89 89 89 89 89 89 89 88 87 86 84 83 81
86 86 86 86 86 86 86 86 85 85 85 85 85 85 85 85 85 86 86 86 87 87 87 87 88 88 88 88 88 88 88 88 88 88 87 87 87 88 90 91 93 93 92 93 94 92 91 91 91 87 85 88 91 91 91 91 92 93 92 90 88 87 86 87 87 88 88 87 87 86 86 86 87 87 87 87 88 88 88 87 86 85 83 82 80
84 84 85 85 85 85 85 85 84 84 85 85 85 85 86 86 86 87 88 89 89 90 91 91 91 92 92 92 92 92 92 92 92 92 92 92 91 91 91 92 93 94 95 96 96 94 94 95 94 89 87 89 90 91 93 95 97 97 94 90 87 86 85 85 84 84 83 82 81 81 81 82 83 84 84 84 85 85 85 85 84 82 80 78 76
84 84 85 85 85 85 85 85 86 86 87 87 88 88 88 89 89 90 90 91 92 93 94 94 95 96 96 96 96 96 97 97 97 96 95 95 94 92 92 92 92 94 98 99 98 95 95 97 96 93 93 92 91 93 97 99 98 96 93 91 90 89 87 84 82 81 79 77 77 77 78 80 81 81 81 81 82 82 82 81 80 79 76 74 72
85 86 86 86 86 87 87 88 88 89 89 90 91 91 92 92 92 93 94 95 95 96 96 97 98 99 100 100 100 99 99 99 98 97 96 95 94 93 92 92 92 93 95 98 98 96 96 95 94 94 94 93 93 96 98 98 97 94 92 92 92 91 87 82 79 77 75 74 74 75 75 76 76 76 76 76 76 76 76 76 76 75 73 72 71
87 87 88 88 89 89 89 90 91 91 92 93 93 94 95 95 96 96 97 98 99 100 100 100 101 101 101 101 101 100 99 98 97 96 94 93 93 92 92 90 90 90 91 92 93 93 93 94 93 92 91 91 91 94 96 96 95 93 91 92 92 89 84 79 75 71 70 69 69 69 69 68 68 68 69 69 70 70 70 71 70 70 70 70 69
89 90 90 91 91 92 92 93 93 94 95 95 96 97 98 99 100 100 100 101 102 103 103 102 101 101 101 100 100 99 97 96 95 94 93 91 90 89 89 88 87 86 86 87 88 88 89 90 89 89 88 87 88 90 92 91 90 89 89 90 89 85 80 74 68 65 63 62 62 62 62 60 60 60 62 63 64 65 65 65 65 66 66 65 64
92 93 93 94 94 95 95 96 97 97 98 98 99 100 100 102 103 103 103 102 102 103 103 103 101 100 98 97 96 95 95 93 92 90 89 88 86 85 85 84 83 82 82 83 83 83 83 83 83 83 83 83 85 86 86 85 85 86 86 85 84 81 75 68 62 59 57 56 56 57 56 54 54 55 57 58 59 59 59 59 60 60 60 59 57
94 95 96 97 97 98 98 98 99 99 100 100 101 101 101 102 103 103 103 102 101 99 98 97 97 97 95 94 92 90 89 88 87 86 84 82 81 80 79 79 79 78 78 79 78 77 77 77 77 78 77 78 80 81 80 81 83 83 81 79 78 75 70 62 57 55 53 52 54 55 52 50 50 51 52 53 53 53 54 54 55 54 54 52 51
95 96 96 97 97 98 98 98 99 99 99 99 99 100 100 99 99 99 99 98 97 96 93 90 89 88 88 88 88 86 84 83 81 80 78 76 74 74 74 75 76 75 74 75 74 73 72 71 72 72 73 74 75 75 76 79 81 80 77 74 73 71 65 58 53 51 49 50 53 53 51 48 48 48 49 49 48 49 49 50 50 50 49 48 47
91 91 92 92 93 93 94 94 94 95 95 95 95 95 95 95 94 94 93 92 91 90 89 87 85 82 80 80 80 80 79 77 76 74 73 71 70 69 70 71 73 73 71 71 70 69 68 67 67 68 69 70 71 71 73 76 77 74 72 70 68 64 59 53 48 47 47 50 52 52 49 46 46 46 47 46 45 45 46 47 47 46 45 44 43
84 84 84 84 85 85 86 86 87 87 87 88 88 88 88 87 87 86 86 85 84 83 82 82 81 79 77 75 74 73 73 71 70 69 68 66 66 66 67 68 70 70 68 66 66 65 64 64 64 65 66 66 67 68 71 72 72 70 67 65 61 56 52 49 47 47 48 50 51 49 46 45 45 46 46 44 43 43 44 44 43 42 41 41 40
78 78 78 78 78 78 78 78 79 79 79 80 80 80 79 79 79 79 78 78 77 76 76 76 76 75 73 71 69 68 67 66 65 65 64 62 62 63 64 65 67 67 64 62 60 60 60 61 61 61 62 62 64 66 68 69 69 66 61 56 52 49 47 47 47 48 48 49 48 46 44 44 45 46 44 42 41 42 42 41 40 39 38 37 36
74 74 73 73 73 73 73 73 73 74 74 74 74 74 74 74 74 73 73 72 72 72 72 71 70 70 69 68 66 64 63 62 61 60 60 59 59 59 60 62 63 62 60 58 55 54 56 58 58 58 59 60 62 63 65 66 65 61 54 49 46 45 46 46 47 47 48 47 46 45 44 44 45 44 42 40 40 40 40 39 37 36 35 34 33
71 71 70 70 70 70 70 70 70 70 70 70 70 70 70 70 69 69 68 68 68 68 68 67 66 65 64 64 62 61 59 57 57 56 56 55 54 54 54 56 57 58 56 53 51 51 53 56 57 57 57 58 59 61 63 63 60 55 50 46 44 45 46 46 46 46 47 46 45 45 45 44 44 42 40 38 38 38 38 36 35 34 33 31 30
67 67 67 67 66 66 66 66 66 66 66 66 66 66 66 65 65 65 64 64 64 64 64 63 61 60 60 59 58 57 55 53 52 52 52 51 49 49 50 51 53 53 51 49 48 49 52 54 56 56 56 56 58 60 60 58 55 51 47 44 43 44 44 45 46 46 46 46 45 45 45 44 42 40 38 37 37 37 36 35 33 32 31 29 28
62 62 62 62 62 62 62 62 62 62 62 62 62 62 62 61 61 60 60 59 59 59 59 58 57 56 55 54 53 52 51 50 49 48 48 47 45 45 47 48 48 48 47 46 46 48 50 52 53 54 55 55 55 56 55 53 51 49 46 44 43 42 42 44 45 46 47 47 46 45 44 42 40 38 37 37 37 36 34 33 32 31 29 28 27
58 58 58 57 57 57 57 57 57 57 58 58 58 58 58 57 56 56 55 55 55 55 55 54 53 52 50 50 49 48 47 47 46 45 45 44 43 43 43 44 44 44 44 44 45 47 48 49 50 52 52 51 51 52 52 51 49 47 44 43 42 41 41 42 44 45 47 48 47 44 42 40 39 38 37 36 36 34 33 32 31 29 28 26 26
54 54 53 53 53 53 53 53 53 53 53 54 54 54 54 53 53 52 51 51 51 51 51 51 49 48 47 46 45 45 44 44 44 43 43 42 41 41 41 41 41 41 42 42 44 45 45 46 46 47 47 47 48 49 49 48 46 44 42 41 40 39 39 41 43 47 50 50 46 41 39 39 38 37 36 35 34 33 31 30 30 28 26 25 25
51 50 50 50 49 49 49 49 49 49 50 50 50 51 51 50 50 49 48 48 48 47 47 47 46 45 44 43 43 42 42 41 41 41 41 40 39 39 39 39 39 40 40 40 41 41 42 42 42 43 43 44 46 47 46 44 42 40 39 38 39 39 40 42 46 50 50 47 41 38 38 38 38 36 35 34 33 31 30 29 29 27 26 25 25
47 47 46 46 46 46 46 46 46 47 47 47 47 47 47 47 47 46 46 45 44 43 43 43 43 42 42 41 40 39 39 39 39 38 38 38 37 37 37 37 37 38 38 38 38 38 39 40 40 41 41 42 43 44 43 42 41 39 38 38 39 41 43 46 49 49 45 40 37 37 38 38 37 35 35 34 32 30 30 29 28 27 25 25 25
44 43 43 43 43 43 43 43 44 44 44 44 44 44 44 44 44 44 43 42 41 40 40 40 40 40 39 38 37 36 36 36 36 36 36 36 35 35 35 35 35 36 36 36 35 35 36 37 38 38 38 38 39 40 41 41 40 39 39 40 41 44 46 47 46 43 39 36 35 37 38 37 35 34 34 32 31 30 29 29 28 27 25 25 25
41 41 41 41 41 41 41 41 41 41 41 41 41 41 41 42 42 41 41 39 38 38 38 38 37 37 36 35 35 34 33 33 33 34 34 34 34 33 33 32 32 33 34 33 33 33 34 34 34 35 35 35 36 38 39 39 39 40 40 41 42 44 45 44 40 37 34 33 34 36 36 35 34 34 33 32 31 30 29 28 27 26 25 25 25
39 39 39 39 39 38 38 39 39 39 39 39 39 39 39 39 39 39 39 38 36 36 36 36 35 34 33 32 32 32 32 32 31 32 32 32 32 32 31 30 30 30 30 31 31 32 32 32 32 33 33 34 35 36 37 38 38 39 39 40 41 42 41 39 36 34 33 33 34 34 34 33 34 33 32 31 30 30 29 28 27 26 26 25 25
38 38 38 38 37 37 37 37 37 37 37 36 36 36 36 36 36 37 37 37 36 34 33 33 33 32 31 30 30 30 30 30 30 30 30 30 30 30 29 29 28 28 28 29 29 30 30 30 31 32 33 33 34 34 35 36 36 36 36 36 37 37 37 36 35 34 34 34 34 33 33 33 33 33 32 31 30 30 29 29 28 27 26 26 26
37 37 37 37 36 36 35 35 35 35 34 34 34 34 34 34 34 34 35 36 35 33 31 30 30 30 30 29 28 28 28 28 28 28 29 29 28 28 27 27 26 26 27 28 28 28 28 29 29 30 31 32 32 32 32 32 33 32 32 32 34 35 35 35 34 34 34 34 34 33 33 33 33 32 31 31 30 30 29 29 28 27 27 27 27
Wind_Direction
267 268 268 270 276 281 284 282 276 274 275 275 275 275 275 276 276 276 277 277 276 276 275 275 275 275 275 276 276 277 278 279 280 281 283 284 285 286 286 287 288 289 289 290 291 293 294 294 294 293 292 291 292 290 288 285 284 284 286 287 289 290 291 291 291 290 290 289 288 287 285 283 281 280 278 277 276 275 274 273 271 270 268 267 266
275 275 276 277 280 284 285 283 278 275 274 273 273 273 273 274 276 277 278 278 277 276 274 274 274 274 275 275 276 277 277 278 280 281 282 282 283 283 284 285 286 287 289 290 292 293 294 294 293 291 290 291 291 291 289 287 285 285 286 288 289 290 291 291 290 290 289 288 286 285 284 283 282 280 278 276 276 275 274 273 272 270 268 267 267
278 280 283 283 284 285 283 281 278 276 274 272 271 272 273 274 276 277 278 278 277 275 273 272 272 273 273 273 274 275 276 277 278 279 280 281 281 283 284 285 286 288 290 292 293 294 294 294 293 291 290 289 289 291 291 289 288 288 288 288 290 290 290 291 291 292 291 288 285 285 284 283 283 283 281 278 276 276 275 274 273 271 269 268 267
244 250 258 261 268 276 278 278 276 270 266 266 267 270 273 275 276 276 276 275 274 273 272 271 270 270 270 271 272 273 275 277 278 279 279 280 282 283 284 286 287 289 291 292 293 294 295 295 293 291 290 288 286 287 289 290 288 288 289 289 289 290 290 291 292 292 290 287 286 287 286 283 283 284 284 283 282 280 278 276 275 274 272 271 269
228 230 239 238 239 252 267 276 276 268 263 263 267 270 273 275 274 274 274 273 272 272 273 272 272 271 271 271 273 275 277 278 279 279 280 280 281 282 283 284 286 289 291 292 294 296 296 295 292 290 290 290 288 288 290 292 291 290 290 291 291 291 291 292 292 290 288 286 286 288 286 284 286 285 282 284 287 287 285 282 279 277 276 275 273
230 230 240 246 244 249 260 269 270 267 264 263 263 265 268 271 273 274 274 273 273 273 275 276 276 276 276 277 277 279 280 281 280 279 279 279 279 279 280 283 287 291 293 295 297 297 296 295 294 293 293 294 293 293 295 296 295 294 293 293 293 294 293 293 292 290 288 286 286 286 285 286 288 286 282 283 286 288 290 289 287 284 281 280 278
231 229 232 240 247 253 260 263 263 263 263 263 260 259 262 266 269 272 272 273 275 275 276 278 278 278 278 279 280 280 280 281 281 280 280 279 278 279 282 287 291 294 296 297 298 298 298 298 297 297 297 296 296 297 297 298 299 298 296 295 295 295 295 295 294 292 290 289 288 286 285 286 288 288 286 286 286 288 290 291 291 290 288 285 282
231 230 230 234 242 248 252 256 259 259 259 259 258 257 259 263 265 267 269 272 274 275 277 279 279 277 277 277 277 277 277 277 278 280 281 280 280 283 287 291 293 294 295 296 297 297 298 298 298 297 297 297 297 297 298 299 299 298 298 297 296 296 295 295 294 293 292 291 290 288 286 286 286 287 288 288 289 291 294 294 294 293 291 288 285
234 233 234 236 240 243 246 250 254 255 256 256 257 258 259 261 262 263 266 269 271 272 274 277 278 279 279 278 277 276 275 275 277 279 280 281 283 287 290 291 292 293 293 294 294 295 295 295 296 296 297 297 297 298 298 298 297 297 296 296 295 295 294 294 293 293 291 290 290 288 286 285 285 286 287 288 290 292 294 296 295 294 291 289 286
235 234 236 240 244 248 251 252 253 254 255 256 258 260 261 262 261 262 265 267 269 269 270 272 274 275 277 279 280 280 278 278 279 280 281 282 286 289 291 292 292 293 293 293 293 294 294 294 295 295 296 296 296 297 297 296 296 295 295 295 294 293 293 292 292 291 290 289 287 284 283 283 284 285 286 287 288 290 292 293 294 293 291 288 286
234 235 240 246 251 253 254 255 256 256 258 259 260 262 263 264 263 263 263 265 266 266 267 268 269 270 271 274 277 278 278 277 278 278 279 281 284 288 290 292 292 293 293 293 294 294 294 294 294 294 294 295 295 296 296 296 295 295 294 293 293 292 291 291 290 289 288 286 285 283 281 281 282 282 283 285 286 288 289 291 292 292 291 288 284
237 241 247 253 255 254 253 253 255 256 259 260 262 263 264 264 264 263 264 265 266 266 265 266 267 267 268 269 272 274 273 274 274 275 276 279 283 286 289 291 292 292 292 293 294 294 294 294 294 294 294 295 296 296 296 296 296 295 295 293 292 290 289 289 288 287 286 284 283 282 281 281 280 280 281 283 285 286 288 289 290 290 289 286 283
241 245 251 254 254 253 252 253 254 255 257 259 261 262 263 263 263 263 265 267 268 269 268 267 266 267 268 270 273 273 271 269 270 272 275 279 283 287 290 291 292 292 293 293 293 293 293 293 292 293 293 294 295 295 295 295 295 295 294 293 291 289 288 288 287 286 284 283 282 282 281 281 280 280 281 282 284 286 287 289 288 287 285 284 282
246 250 253 253 250 249 251 253 254 254 255 257 259 259 259 260 261 262 264 267 270 271 270 268 267 268 271 272 271 270 268 267 269 273 277 281 284 287 290 291 292 292 292 292 292 291 291 290 290 290 290 291 291 291 291 292 293 292 291 289 288 288 288 288 287 285 284 282 281 281 280 280 280 280 281 282 284 285 286 287 286 284 283 282 282
248 251 253 252 248 246 248 251 253 254 255 255 257 258 259 260 262 264 267 269 270 270 269 270 270 271 271 270 267 266 268 270 272 275 278 281 284 287 289 289 290 290 289 289 289 288 288 288 288 288 288 288 288 287 287 288 288 287 286 286 286 286 286 286 285 285 283 283 282 281 280 280 281 281 282 283 284 285 285 284 283 282 282 282 282
250 252 253 252 249 246 247 249 251 253 254 255 257 259 262 264 264 264 265 266 266 266 268 270 272 272 271 271 271 272 273 274 276 278 280 283 285 286 287 287 287 287 286 286 286 286 286 286 286 287 287 287 286 286 286 285 284 282 281 281 281 282 283 283 283 283 282 282 282 282 282 283 282 282 283 284 285 286 286 285 284 283 283 283 284
251 253 255 255 254 252 251 251 252 254 256 258 260 261 262 263 262 260 260 261 261 263 265 267 269 271 272 273 274 276 277 278 280 281 283 284 284 284 284 284 284 284 284 284 284 284 284 284 285 285 285 285 285 285 285 285 283 281 279 279 279 280 281 280 281 281 281 282 282 283 283 283 283 283 283 284 285 285 285 285 285 285 286 286 285
250 252 254 256 257 258 257 257 258 260 261 262 263 263 262 261 260 258 259 259 260 261 263 264 266 268 270 272 274 276 278 280 281 282 282 282 282 282 281 281 281 281 281 281 281 281 282 282 282 282 282 283 283 283 283 283 281 279 278 279 280 280 280 279 280 280 280 281 281 282 282 282 281 282 282 283 283 282 282 283 284 285 285 285 285
250 251 253 256 258 259 260 261 262 263 263 263 263 263 263 262 261 260 259 260 261 262 262 263 265 266 268 270 272 274 277 279 280 280 280 280 280 279 279 279 279 279 279 278 278 279 279 279 280 280 280 280 281 281 281 280 278 277 278 279 279 279 279 279 278 279 279 280 280 280 281 281 281 281 281 281 280 281 281 282 283 283 283 283 283
252 253 255 256 258 260 261 262 263 264 264 264 264 264 264 264 263 263 263 263 263 263 264 264 265 266 267 269 270 272 274 275 276 277 278 279 279 279 278 278 277 277 276 276 276 276 277 277 277 278 278 279 279 279 279 278 277 277 278 278 279 279 279 279 279 279 279 280 280 281 281 281 281 282 281 281 280 280 280 281 281 281 281 281 282
256 256 257 258 259 260 261 263 264 265 266 267 267 267 267 266 266 266 266 265 265 265 265 266 266 267 268 268 269 271 272 273 274 275 276 277 278 278 278 278 277 277 276 275 275 275 276 276 277 277 277 278 278 278 278 278 278 278 278 278 279 279 279 279 280 280 280 281 281 281 282 282 282 282 282 282 281 281 281 281 280 280 280 281 281
258 259 260 260 261 261 262 264 265 267 267 268 268 268 267 267 267 267 267 267 267 267 267 267 267 268 269 270 270 271 272 272 273 274 275 276 276 277 277 278 278 278 278 277 275 275 276 276 277 277 277 277 277 277 278 278 278 278 279 279 279 279 280 280 280 280 280 280 280 281 281 282 282 282 282 282 282 282 282 281 281 281 281 281 281
258 259 260 261 262 262 263 264 265 266 267 267 267 268 268 268 267 267 267 267 267 267 268 268 268 269 269 270 271 271 272 273 274 275 276 276 277 278 278 279 279 279 279 278 276 276 276 276 277 276 276 275 276 277 277 277 278 278 278 278 279 279 279 279 279 279 279 279 279 279 280 280 280 281 282 282 282 282 282 282 282 282 281 281 281
258 259 259 260 261 263 264 265 265 266 267 267 268 268 268 269 269 268 268 268 268 268 268 268 268 268 268 268 269 270 270 271 273 275 276 277 278 278 278 279 279 278 278 277 276 275 275 275 275 274 274 274 274 274 275 275 276 276 276 276 275 275 276 276 277 277 278 278 278 278 278 279 280 280 281 281 282 282 282 282 282 282 282 282 281
260 260 261 262 263 264 265 266 267 268 268 269 269 270 270 270 270 270 270 269 269 269 268 268 268 268 267 267 267 268 268 269 269 270 271 273 274 274 275 276 277 278 278 278 277 276 276 275 275 274 274 274 273 274 274 275 275 275 274 273 273 273 274 275 275 276 276 276 277 277 278 278 279 279 280 280 281 281 282 282 282 282 282 282 281
262 263 263 264 265 266 266 267 268 269 270 271 271 272 272 273 273 273 273 273 272 271 271 271 271 271 270 270 269 269 270 270 271 271 271 272 274 276 277 278 280 281 282 283 282 280 279 278 278 277 278 278 277 277 277 277 276 275 273 272 272 272 273 273 274 275 275 275 276 277 278 278 278 278 278 279 279 280 280 281 281 281 281 281 281
264 264 265 265 266 267 268 269 269 270 271 271 272 273 273 274 275 275 275 275 275 275 275 275 275 275 275 275 274 274 274 274 275 275 276 276 277 279 280 281 282 283 284 284 283 282 282 280 279 279 280 280 280 281 281 280 279 277 275 273 272 272 272 273 273 273 274 274 275 276 277 277 277 277 277 277 278 278 279 279 280 280 280 280 280
265 266 266 267 268 268 269 270 270 271 272 272 272 273 274 274 274 275 275 275 276 276 276 276 276 276 276 276 277 277 277 277 277 277 278 278 278 279 279 281 282 283 283 282 282 283 283 282 281 281 281 280 281 282 282 281 279 278 277 278 278 277 276 275 274 274 274 275 276 276 277 277 276 276 276 277 277 277 278 278 279 279 279 279 280
265 266 266 267 268 268 269 270 270 271 271 272 272 272 272 273 273 273 273 273 274 274 275 275 275 276 276 276 276 277 277 278 278 278 278 279 279 279 279 279 280 280 281 281 281 281 281 281 282 282 282 281 281 281 280 279 278 279 280 281 281 280 279 278 278 278 279 280 280 279 278 277 277 276 276 276 276 276 277 277 278 279 279 280 281
266 266 267 267 268 268 269 269 270 270 271 271 272 272 273 273 273 273 273 273 273 274 274 274 275 275 275 276 276 277 277 277 278 278 278 279 279 279 278 278 278 277 277 278 278 278 278 278 278 279 279 279 279 278 278 278 279 280 281 281 280 280 280 281 281 282 283 283 282 281 280 278 277 276 276 276 276 276 276 277 278 279 279 280 280
267 268 268 269 269 269 270 270 271 271 272 272 273 273 274 274 274 274 274 274 274 274 274 274 275 275 276 276 277 277 277 278 278 278 278 278 278 278 278 277 276 275 274 274 275 275 275 276 275 275 275 275 275 276 276 277 278 278 279 279 279 280 281 282 283 283 284 284 283 281 280 278 277 277 276 276 275 275 275 276 277 278 278 278 279
268 269 269 269 270 270 270 271 271 271 272 272 272 273 273 274 274 274 274 274 275 275 275 275 275 276 276 277 278 278 279 279 279 278 278 278 277 277 276 276 275 274 273 273 273 273 273 273 273 273 273 273 273 273 273 274 275 276 276 277 278 279 281 282 283 283 284 283 282 280 279 278 277 276 275 274 274 274 275 276 276 276 277 277 278
268 269 269 269 270 270 270 271 271 271 271 272 272 272 273 273 274 274 274 274 274 275 276 277 277 278 278 278 278 278 279 279 278 278 277 277 276 276 275 275 274 273 272 272 271 270 270 270 271 271 271 271 271 271 272 273 274 273 273 274 276 278 280 281 282 283 283 282 280 278 277 276 276 275 274 273 273 274 275 275 275 276 276 278 279
267 268 268 269 269 270 270 270 271 271 271 272 272 272 273 273 274 274 275 275 276 276 276 276 277 278 279 279 279 278 278 277 277 277 276 275 275 275 274 274 273 272 271 270 269 269 268 269 269 269 269 269 269 270 272 272 272 271 272 274 275 277 279 281 283 283 283 280 277 276 275 275 274 273 273 273 273 273 273 274 275 277 278 280 282
267 268 268 269 269 270 270 271 271 271 272 272 272 273 273 274 274 275 275 276 277 277 277 277 277 277 277 278 278 277 277 276 276 276 275 275 274 274 273 273 272 270 269 269 269 268 268 268 267 267 268 267 267 268 268 268 269 271 273 274 275 276 279 282 284 284 281 277 274 274 274 274 274 273 272 272 272 273 274 275 277 279 282 283 284
267 267 268 268 269 269 270 270 271 271 272 272 272 273 273 274 274 275 275 276 276 277 278 278 278 277 276 275 275 276 276 276 275 275 275 274 274 273 272 271 270 269 269 268 268 268 268 267 267 266 266 266 266 266 266 266 268 270 272 273 274 276 279 282 283 280 275 272 271 272 273 274 273 272 271 271 272 273 275 277 279 281 283 284 285
268 268 268 268 269 269 269 270 270 270 271 271 272 272 272 273 273 274 274 275 276 276 276 277 277 277 276 275 275 275 275 275 275 274 274 273 272 271 270 269 269 268 268 267 268 268 268 267 266 265 265 265 265 266 266 267 269 270 271 272 274 277 280 280 277 273 269 268 269 270 272 272 271 270 271 272 273 274 275 276 278 281 283 284 285
270 270 270 270 270 270 270 271 271 271 271 272 272 272 273 273 274 274 274 275 275 276 276 276 276 276 276 276 275 275 275 274 274 273 273 272 270 269 268 267 267 268 268 268 267 267 267 266 265 264 264 264 264 264 265 267 268 269 270 272 274 275 275 272 270 267 266 266 267 268 268 268 268 268 270 271 272 273 275 276 278 280 282 283 283
271 271 271 271 271 271 271 272 272 272 272 272 273 273 273 274 274 274 275 275 275 275 275 275 276 276 276 277 276 276 275 274 274 273 272 270 268 267 267 267 268 268 269 268 267 266 264 263 262 262 261 261 261 262 263 265 267 270 273 275 275 273 270 267 265 265 264 265 266 266 266 265 265 267 268 270 271 272 274 276 278 279 280 281 280
271 272 272 272 272 272 272 272 272 272 272 272 273 273 273 274 274 274 275 275 275 275 276 276 276 276 277 277 277 277 276 275 273 272 271 269 268 267 267 266 266 267 267 266 265 263 261 260 260 259 259 259 260 261 263 265 268 271 274 275 273 271 268 267 265 264 264 264 264 264 264 264 265 266 268 269 270 272 274 275 277 278 278 278 278
271 271 272 272 272 272 272 272 272 272 272 272 272 273 273 273 274 274 275 275 275 275 276 276 276 277 277 277 277 277 277 275 274 272 271 270 269 268 266 265 265 265 265 265 263 260 259 259 259 259 259 259 259 261 263 267 270 273 274 273 270 267 266 265 264 263 263 262 261 261 262 263 264 266 267 268 269 270 272 273 274 275 276 276 276
271 271 271 272 272 272 272 272 272 272 272 272 272 272 272 273 273 274 274 275 275 276 276 277 277 277 278 278 278 278 278 276 275 274 273 271 270 268 266 265 264 264 263 262 260 258 258 258 258 259 260 260 261 263 265 268 270 271 271 269 266 264 262 261 261 261 261 260 259 259 260 262 263 264 265 266 267 268 270 271 271 272 272 272 273
270 270 271 271 271 271 271 271 272 272 272 272 272 272 273 273 274 274 275 275 276 276 277 278 278 279 279 279 279 279 278 278 276 275 274 272 270 267 266 265 264 263 261 259 257 256 256 256 257 258 260 261 261 263 264 265 265 266 266 265 264 262 260 258 258 258 257 257 257 258 259 261 261 262 262 263 265 266 267 267 268 269 269 269 270
270 270 270 270 271 271 271 271 271 271 272 272 272 273 274 274 275 275 276 276 277 278 279 280 280 281 281 281 281 280 279 278 277 275 274 272 270 268 265 264 262 261 259 258 257 256 256 256 257 258 260 260 260 260 261 262 262 262 262 261 260 258 255 253 253 252 253 255 257 258 258 258 259 259 260 261 262 263 264 264 265 265 266 266 267
270 270 270 270 271 271 271 271 271 272 272 272 273 274 274 275 276 276 277 277 278 279 280 281 282 282 282 282 282 281 279 278 276 275 273 271 269 267 265 263 262 260 259 258 257 257 257 256 256 256 256 257 258 260 261 261 261 260 259 257 254 251 248 247 247 249 252 256 258 257 256 256 256 258 259 259 260 260 260 261 262 263 263 263 264
270 270 271 271 271 271 272 272 272 272 272 273 273 274 275 276 277 278 278 279 279 280 281 281 282 283 283 282 281 280 279 277 275 273 271 269 267 266 264 263 262 260 259 258 258 257 257 256 255 255 254 255 257 259 260 260 259 257 254 251 248 246 245 245 247 251 256 258 257 254 253 254 255 256 256 257 257 257 257 258 259 259 260 260 260
272 271 271 271 271 272 272 272 272 273 273 273 274 275 276 277 278 279 280 280 281 282 283 283 284 284 284 283 282 280 278 276 274 273 270 268 266 264 263 262 261 260 260 259 259 258 258 258 257 257 256 256 256 256 257 257 256 254 251 248 246 245 246 249 252 256 258 258 254 252 252 253 253 254 254 254 254 254 255 256 256 257 257 257 258
273 272 272 271 271 271 271 272 272 273 273 274 275 277 278 279 280 280 281 282 283 284 285 285 285 285 285 284 283 281 278 276 274 272 271 269 266 264 262 261 261 261 261 260 259 257 257 256 256 256 255 254 253 252 252 252 252 251 250 248 248 249 251 255 257 258 257 254 252 251 252 252 251 251 251 251 251 252 253 253 254 254 254 255 255
273 272 271 271 271 271 271 271 272 272 274 275 277 278 279 280 281 282 283 283 284 286 287 287 287 286 285 284 282 281 279 277 275 273 271 269 268 266 264 262 261 261 260 259 258 257 256 255 254 253 252 251 250 249 249 249 249 249 249 249 250 253 256 258 258 256 253 250 250 249 249 248 247 247 248 248 249 250 251 251 251 252 252 252 252
272 272 271 271 271 270 270 270 271 273 274 275 276 277 278 279 280 282 283 284 285 286 287 287 287 287 286 285 283 281 279 278 276 275 273 271 269 267 265 263 261 260 259 258 257 256 256 255 254 253 252 251 250 250 250 250 250 250 250 251 252 253 254 254 253 251 249 248 247 247 245 244 245 246 246 247 248 248 249 249 249 249 249 249 249
272 271 271 271 271 271 271 271 272 273 274 275 276 276 277 278 278 279 280 283 284 286 286 286 287 287 287 286 285 283 281 278 277 275 275 273 271 268 266 264 262 259 258 257 256 255 254 253 253 253 253 253 252 252 252 252 252 252 251 250 250 250 250 250 249 248 247 246 246 245 244 244 245 245 246 246 246 247 247 248 248 248 248 248 247
Height
10601 10601 10602 10602 10602 10601 10599 10599 10598 10597 10597 10596 10596 10597 10598 10597 10597 10597 10597 10598 10598 10599 10599 10600 10600 10601 10601 10601 10602 10602 10602 10603 10603 10604 10604 10605 10605 10605 10604 10605 10605 10604 10604 10604 10604 10603 10603 10602 10602 10602 10601 10602 10602 10602 10601 10599 10597 10596 10594 10592 10590 10587 10585 10585 10584 10584 10584 10584 10583 10582 10581 10581 10581 10579 10578 10577 10577 10577 10576 10575 10573 10573 10573 10573 10573
10598 10599 10600 10599 10597 10595 10593 10592 10591 10591 10591 10590 10589 10590 10591 10590 10591 10591 10592 10593 10593 10593 10594 10594 10595 10596 10596 10596 10596 10596 10596 10597 10598 10599 10599 10599 10599 10598 10598 10599 10600 10599 10599 10599 10598 10598 10597 10597 10596 10595 10595 10595 10596 10596 10595 10593 10591 10590 10590 10588 10586 10583 10580 10579 10578 10577 10577 10577 10577 10576 10575 10574 10573 10573 10572 10570 10569 10570 10569 10568 10566 10566 10566 10565 10565
10598 10599 10599 10597 10592 10588 10587 10586 10585 10585 10585 10583 10583 10583 10583 10584 10585 10586 10586 10587 10587 10588 10588 10589 10590 10591 10591 10591 10591 10591 10591 10592 10593 10594 10593 10593 10592 10592 10592 10592 10593 10593 10593 10593 10592 10591 10591 10591 10590 10589 10588 10588 10589 10590 10589 10587 10585 10584 10584 10583 10581 10578 10576 10573 10572 10570 10569 10568 10569 10569 10569 10567 10566 10565 10565 10564 10563 10563 10562 10560 10559 10559 10558 10558 10558
10594 10594 10595 10593 10588 10583 10580 10580 10580 10579 10579 10578 10578 10578 10578 10579 10580 10580 10580 10580 10581 10582 10583 10584 10584 10585 10585 10585 10585 10585 10586 10587 10588 10587 10587 10586 10585 10585 10585 10585 10586 10587 10587 10587 10586 10585 10585 10585 10585 10583 10582 10581 10581 10581 10582 10581 10580 10578 10578 10577 10575 10574 10571 10569 10567 10565 10563 10562 10560 10561 10562 10561 10560 10558 10557 10557 10557 10556 10554 10553 10551 10550 10550 10551 10551
10587 10586 10586 10586 10584 10579 10576 10575 10575 10574 10574 10574 10575 10575 10575 10574 10574 10574 10574 10574 10575 10576 10577 10578 10579 10579 10579 10579 10579 10580 10581 10582 10581 10580 10580 10580 10580 10580 10579 10579 10580 10581 10582 10581 10580 10579 10579 10579 10579 10578 10576 10575 10573 10572 10572 10572 10572 10572 10571 10569 10568 10567 10566 10564 10562 10560 10559 10557 10555 10554 10553 10553 10553 10552 10551 10551 10550 10548 10547 10546 10545 10544 10544 10544 10543
10583 10584 10584 10583 10580 10577 10575 10573 10571 10569 10571 10572 10573 10572 10572 10571 10571 10570 10569 10569 10569 10570 10571 10572 10573 10573 10572 10573 10574 10575 10576 10576 10575 10574 10575 10575 10575 10575 10574 10574 10574 10573 10573 10573 10573 10573 10573 10572 10572 10571 10570 10568 10567 10564 10562 10562 10563 10563 10563 10562 10560 10558 10558 10557 10557 10555 10554 10553 10551 10549 10547 10546 10546 10545 10545 10545 10544 10542 10541 10540 10538 10538 10538 10538 10537
10578 10581 10582 10579 10576 10575 10575 10571 10566 10566 10569 10570 10569 10569 10569 10568 10568 10566 10564 10564 10563 10564 10565 10566 10566 10566 10566 10566 10569 10570 10570 10570 10569 10569 10569 10569 10569 10568 10568 10568 10567 10565 10564 10563 10564 10564 10563 10563 10564 10563 10562 10561 10559 10558 10555 10553 10553 10554 10555 10554 10552 10550 10549 10548 10548 10548 10547 10547 10546 10544 10543 10541 10540 10539 10539 10538 10537 10536 10535 10534 10533 10532 10532 10531 10530
10572 10574 10575 10574 10574 10574 10573 10568 10564 10564 10566 10565 10565 10566 10565 10564 10564 10562 10560 10559 10558 10559 10559 10559 10559 10559 10559 10560 10562 10563 10563 10563 10563 10563 10563 10562 10562 10561 10561 10561 10559 10558 10557 10555 10555 10554 10553 10552 10552 10553 10553 10552 10552 10551 10549 10546 10545 10544 10545 10546 10545 10544 10542 10541 10540 10539 10538 10538 10538 10538 10537 10535 10534 10533 10532 10531 10530 10529 10528 10527 10527 10526 10526 10525 10523
10568 10569 10570 10570 10570 10570 10568 10565 10563 10562 10561 10560 10561 10561 10561 10560 10559 10557 10555 10554 10554 10554 10554 10554 10552 10551 10550 10551 10553 10555 10555 10555 10555 10555 10555 10554 10553 10553 10553 10553 10552 10551 10550 10549 10548 10547 10546 10544 10542 10541 10542 10542 10542 10542 10541 10540 10538 10536 10536 10537 10537 10536 10535 10534 10534 10532 10530 10529 10529 10529 10529 10528 10527 10526 10525 10523 10522 10521 10520 10520 10519 10519 10518 10518 10517
10564 10564 10564 10565 10565 10564 10562 10560 10559 10558 10557 10556 10556 10556 10556 10556 10555 10554 10552 10550 10550 10549 10549 10550 10549 10546 10544 10543 10544 10545 10547 10547 10547 10547 10547 10547 10545 10545 10544 10544 10544 10543 10542 10541 10540 10539 10538 10537 10535 10533 10532 10531 10532 10532 10532 10532 10530 10529 10528 10527 10527 10527 10527 10527 10527 10526 10524 10523 10522 10521 10521 10520 10519 10518 10517 10515 10514 10514 10513 10512 10512 10511 10510 10509 10508
10557 10557 10557 10557 10557 10557 10556 10554 10553 10552 10552 10552 10552 10551 10551 10551 10551 10550 10548 10546 10545 10545 10545 10545 10544 10543 10541 10539 10539 10539 10539 10540 10541 10541 10540 10540 10539 10537 10536 10535 10535 10534 10533 10532 10531 10530 10529 10528 10527 10525 10524 10523 10523 10523 10523 10523 10522 10521 10520 10519 10518 10518 10517 10518 10519 10519 10518 10516 10515 10513 10513 10512 10511 10510 10509 10508 10506 10506 10505 10504 10503 10502 10500 10499 10498
10549 10549 10549 10549 10550 10549 10549 10548 10547 10547 10547 10547 10547 10547 10546 10545 10545 10543 10542 10540 10540 10540 10540 10539 10538 10537 10536 10535 10534 10534 10533 10533 10533 10534 10533 10533 10531 10530 10530 10528 10527 10526 10525 10524 10523 10521 10520 10518 10517 10516 10515 10514 10512 10512 10512 10512 10512 10512 10511 10511 10510 10509 10509 10509 10510 10510 10509 10509 10507 10506 10505 10504 10503 10502 10501 10500 10499 10498 10497 10495 10494 10492 10490 10489 10487
10541 10542 10543 10543 10544 10543 10541 10541 10542 10542 10542 10541 10542 10542 10540 10539 10538 10537 10536 10535 10534 10533 10533 10532 10531 10530 10530 10529 10527 10527 10527 10526 10526 10526 10525 10525 10524 10523 10522 10520 10519 10517 10516 10515 10514 10512 10511 10510 10509 10508 10508 10507 10504 10502 10502 10502 10502 10502 10501 10501 10500 10499 10499 10500 10501 10501 10501 10500 10500 10499 10497 10496 10495 10493 10492 10492 10491 10490 10488 10486 10484 10482 10480 10479 10477
10535 10536 10537 10538 10538 10537 10536 10535 10536 10536 10536 10535 10535 10535 10534 10533 10531 10531 10530 10529 10528 10527 10524 10523 10523 10523 10523 10523 10521 10519 10520 10520 10520 10519 10518 10517 10516 10515 10514 10513 10511 10509 10508 10506 10505 10503 10502 10501 10501 10501 10502 10501 10499 10496 10495 10494 10494 10492 10491 10490 10490 10490 10490 10490 10490 10491 10491 10491 10491 10491 10490 10488 10486 10485 10483 10482 10481 10480 10479 10477 10475 10473 10471 10469 10468
10529 10529 10530 10531 10532 10532 10531 10530 10530 10530 10529 10529 10528 10527 10527 10527 10525 10524 10523 10522 10521 10519 10513 10511 10514 10516 10515 10514 10513 10512 10512 10513 10513 10512 10511 10510 10509 10508 10507 10506 10504 10503 10501 10499 10497 10495 10493 10492 10491 10492 10493 10493 10492 10490 10490 10490 10489 10484 10481 10480 10480 10480 10480 10480 10479 10479 10479 10479 10480 10480 10480 10479 10477 10475 10473 10472 10470 10469 10469 10468 10466 10464 10462 10461 10459
10521 10522 10523 10524 10525 10526 10526 10525 10524 10523 10522 10522 10522 10521 10520 10520 10518 10517 10516 10514 10512 10510 10505 10501 10503 10506 10506 10506 10504 10503 10502 10503 10503 10503 10503 10502 10502 10501 10500 10499 10498 10496 10494 10493 10490 10487 10485 10483 10483 10482 10482 10482 10482 10481 10482 10484 10483 10478 10474 10471 10471 10471 10472 10471 10469 10468 10468 10468 10468 10468 10469 10468 10467 10465 10463 10462 10460 10458 10457 10456 10455 10454 10453 10452 10450
10513 10513 10514 10515 10516 10518 10519 10519 10517 10516 10514 10513 10513 10513 10513 10513 10511 10510 10509 10507 10504 10503 10501 10498 10496 10497 10497 10496 10495 10493 10491 10491 10492 10492 10492 10492 10493 10492 10492 10491 10490 10489 10487 10485 10482 10479 10477 10475 10474 10474 10473 10472 10471 10471 10472 10473 10473 10470 10466 10463 10462 10463 10463 10462 10460 10459 10457 10457 10456 10456 10457 10457 10456 10455 10454 10453 10451 10449 10447 10445 10444 10444 10443 10442 10440
10505 10504 10504 10504 10505 10506 10508 10509 10508 10506 10505 10504 10503 10504 10504 10504 10503 10502 10501 10500 10498 10496 10495 10493 10491 10490 10490 10489 10488 10486 10483 10481 10481 10481 10481 10481 10482 10482 10482 10482 10481 10481 10480 10478 10475 10471 10469 10467 10466 10465 10464 10463 10462 10462 10462 10464 10464 10460 10455 10454 10454 10454 10454 10452 10451 10449 10448 10447 10446 10446 10446 10446 10445 10445 10445 10443 10441 10439 10438 10437 10436 10435 10434 10432 10429
10496 10496 10495 10494 10494 10495 10495 10496 10496 10496 10496 10495 10495 10495 10495 10494 10494 10494 10493 10492 10490 10489 10488 10487 10486 10485 10484 10482 10481 10479 10476 10474 10472 10471 10470 10470 10470 10471 10472 10472 10472 10472 10471 10470 10467 10464 10460 10458 10457 10456 10455 10454 10453 10452 10452 10454 10455 10451 10447 10445 10444 10444 10443 10442 10441 10440 10438 10437 10437 10436 10436 10435 10435 10435 10434 10432 10431 10429 10429 10429 10428 10426 10424 10422 10420
10487 10487 10487 10486 10485 10485 10484 10484 10484 10484 10485 10485 10486 10486 10486 10486 10485 10484 10484 10483 10482 10481 10480 10479 10478 10477 10476 10474 10473 10472 10470 10467 10464 10461 10460 10459 10458 10459 10459 10460 10461 10462 10463 10462 10459 10455 10451 10449 10447 10447 10446 10445 10444 10442 10441 10442 10443 10441 10439 10437 10435 10433 10433 10432 10430 10430 10429 10428 10426 10426 10425 10425 10424 10424 10422 10421 10420 10420 10419 10419 10418 10416 10413 10412 10410
10475 10476 10477 10476 10476 10475 10474 10474 10473 10473 10474 10474 10475 10475 10475 10476 10475 10474 10473 10472 10472 10471 10469 10469 10468 10466 10465 10464 10463 10462 10460 10459 10456 10453 10451 10449 10448 10447 10447 10447 10449 10451 10452 10451 10448 10445 10442 10439 10437 10437 10436 10434 10433 10431 10430 10430 10430 10428 10428 10427 10425 10423 10422 10421 10420 10419 10419 10418 10416 10415 10414 10414 10413 10412 10411 10410 10409 10409 10409 10408 10406 10404 10403 10401 10400
10464 10465 10466 10466 10465 10465 10464 10464 10463 10463 10463 10463 10463 10463 10463 10463 10463 10463 10462 10461 10461 10460 10458 10458 10458 10456 10454 10452 10451 10450 10449 10447 10446 10444 10441 10439 10437 10436 10436 10437 10438 10439 10439 10438 10437 10434 10431 10429 10427 10426 10425 10423 10421 10420 10420 10419 10418 10417 10416 10415 10413 10412 10411 10410 10409 10408 10407 10407 10406 10405 10404 10403 10401 10400 10400 10399 10399 10398 10397 10395 10394 10393 10392 10390 10389
10455 10455 10454 10454 10454 10453 10453 10453 10453 10452 10451 10450 10450 10450 10450 10450 10450 10450 10450 10450 10449 10449 10448 10447 10447 10446 10444 10442 10440 10440 10438 10435 10433 10432 10430 10427 10425 10425 10425 10425 10426 10427 10427 10426 10425 10424 10421 10418 10416 10415 10413 10411 10411 10410 10408 10408 10407 10407 10405 10404 10402 10401 10400 10398 10398 10397 10396 10395 10394 10394 10393 10392 10391 10390 10389 10388 10387 10385 10384 10383 10382 10381 10380 10379 10377
10444 10444 10443 10443 10442 10442 10441 10441 10441 10440 10440 10439 10438 10438 10437 10437 10437 10437 10437 10437 10437 10436 10436 10435 10435 10435 10434 10432 10430 10429 10428 10426 10424 10422 10420 10417 10414 10413 10413 10412 10412 10414 10415 10415 10415 10412 10410 10407 10405 10403 10401 10400 10399 10398 10396 10396 10397 10396 10395 10392 10390 10388 10387 10387 10386 10385 10384 10383 10383 10382 10382 10381 10380 10379 10377 10375 10374 10373 10372 10371 10370 10368 10367 10366 10365
10432 10432 10431 10431 10431 10431 10430 10429 10429 10428 10428 10427 10426 10426 10425 10424 10423 10423 10423 10423 10423 10422 10422 10421 10420 10420 10420 10420 10418 10416 10416 10416 10416 10414 10412 10409 10405 10404 10404 10401 10398 10398 10400 10402 10402 10398 10395 10393 10391 10391 10389 10387 10385 10385 10384 10384 10384 10382 10380 10378 10376 10376 10376 10375 10374 10373 10372 10371 10371 10371 10371 10371 10370 10368 10366 10364 10362 10361 10359 10358 10357 10355 10354 10353 10351
10421 10420 10420 10420 10420 10419 10419 10418 10418 10418 10417 10416 10415 10414 10413 10411 10410 10409 10408 10407 10407 10407 10406 10406 10405 10404 10404 10404 10404 10403 10402 10402 10402 10401 10401 10400 10396 10394 10393 10390 10385 10384 10386 10387 10384 10381 10381 10379 10376 10378 10378 10373 10369 10371 10371 10370 10368 10365 10364 10364 10364 10364 10364 10363 10362 10361 10360 10360 10360 10360 10360 10360 10358 10356 10354 10352 10350 10349 10347 10345 10344 10343 10342 10340 10339
10410 10410 10410 10409 10409 10409 10408 10407 10407 10407 10406 10405 10403 10402 10401 10400 10398 10396 10394 10393 10392 10391 10391 10391 10390 10390 10389 10388 10388 10387 10387 10387 10387 10386 10387 10387 10386 10384 10381 10378 10374 10373 10373 10370 10366 10366 10366 10362 10360 10367 10369 10361 10355 10355 10355 10352 10350 10347 10346 10349 10352 10353 10354 10353 10351 10351 10350 10350 10351 10351 10350 10348 10347 10345 10343 10341 10339 10337 10335 10333 10332 10331 10330 10329 10327
10399 10399 10399 10399 10398 10398 10397 10397 10396 10395 10394 10392 10391 10390 10389 10387 10386 10384 10382 10381 10379 10378 10377 10376 10375 10375 10375 10374 10374 10373 10373 10372 10371 10371 10371 10372 10373 10373 10371 10367 10365 10362 10357 10353 10353 10356 10353 10345 10344 10352 10354 10349 10346 10345 10340 10335 10332 10330 10331 10335 10338 10339 10339 10338 10339 10339 10340 10341 10342 10341 10339 10337 10334 10332 10331 10329 10328 10326 10323 10322 10321 10320 10319 10318 10318
10389 10389 10389 10388 10388 10387 10386 10385 10384 10383 10381 10379 10378 10377 10376 10375 10373 10372 10370 10369 10368 10366 10364 10363 10361 10361 10361 10360 10360 10360 10359 10357 10356 10356 10357 10356 10357 10358 10358 10357 10356 10352 10345 10340 10341 10345 10343 10336 10336 10338 10337 10336 10337 10334 10325 10318 10317 10318 10321 10323 10322 10321 10320 10322 10323 10325 10327 10330 10330 10329 10327 10324 10321 10320 10319 10318 10316 10314 10313 10311 10310 10309 10309 10309 10309
10378 10378 10377 10377 10376 10376 10375 10373 10372 10370 10369 10367 10365 10363 10362 10361 10360 10359 10357 10355 10354 10353 10352 10350 10348 10347 10346 10345 10345 10346 10346 10344 10342 10343 10343 10342 10340 10341 10342 10342 10343 10341 10336 10331 10329 10331 10331 10328 10328 10328 10326 10325 10325 10318 10310 10307 10307 10309 10310 10309 10306 10305 10306 10309 10311 10313 10316 10318 10318 10315 10313 10310 10309 10308 10307 10306 10305 10304 10303 10302 10301 10301 10300 10300 10299
10365 10365 10365 10364 10363 10363 10362 10360 10359 10358 10356 10355 10353 10350 10348 10347 10347 10345 10343 10340 10338 10337 10337 10337 10335 10334 10332 10331 10330 10331 10331 10330 10329 10328 10328 10328 10327 10326 10325 10325 10326 10325 10324 10321 10319 10319 10318 10316 10315 10315 10314 10314 10313 10307 10300 10298 10298 10298 10298 10296 10293 10293 10295 10298 10301 10304 10307 10307 10306 10303 10300 10299 10298 10297 10296 10295 10294 10294 10293 10293 10293 10292 10291 10291 10290
10352 10352 10351 10351 10350 10349 10348 10347 10346 10345 10343 10342 10341 10338 10335 10333 10331 10331 10330 10328 10324 10321 10320 10320 10321 10321 10320 10319 10317 10316 10315 10315 10314 10313 10312 10312 10312 10311 10309 10308 10308 10308 10308 10307 10306 10306 10304 10302 10301 10300 10300 10300 10299 10294 10291 10290 10290 10289 10288 10285 10283 10284 10286 10289 10292 10296 10298 10298 10295 10292 10290 10290 10290 10288 10286 10285 10285 10285 10285 10285 10284 10283 10283 10282 10281
10340 10339 10338 10337 10336 10335 10335 10334 10332 10331 10330 10328 10327 10325 10323 10320 10316 10314 10314 10314 10313 10310 10307 10305 10304 10305 10306 10306 10305 10303 10300 10299 10298 10298 10297 10297 10296 10296 10294 10292 10291 10292 10292 10291 10290 10290 10290 10289 10288 10288 10288 10287 10283 10280 10279 10281 10280 10278 10277 10276 10275 10276 10278 10280 10284 10288 10289 10287 10284 10282 10282 10282 10281 10279 10277 10276 10277 10277 10277 10277 10276 10275 10275 10274 10274
10327 10326 10324 10323 10322 10322 10321 10320 10319 10317 10316 10314 10312 10311 10309 10307 10304 10301 10298 10297 10297 10297 10296 10295 10294 10292 10290 10288 10288 10288 10287 10285 10283 10282 10282 10282 10282 10281 10279 10277 10276 10276 10276 10274 10274 10275 10277 10278 10277 10276 10276 10275 10272 10269 10269 10268 10265 10263 10265 10267 10267 10267 10268 10271 10276 10279 10279 10277 10275 10273 10273 10273 10273 10271 10270 10269 10270 10270 10270 10269 10268 10267 10267 10267 10267
10313 10312 10310 10309 10309 10308 10307 10306 10304 10303 10301 10300 10298 10296 10295 10293 10291 10289 10286 10283 10281 10280 10280 10281 10282 10282 10280 10275 10271 10271 10271 10271 10269 10268 10267 10268 10269 10268 10266 10263 10261 10261 10261 10260 10260 10262 10265 10266 10266 10265 10264 10263 10261 10260 10258 10255 10252 10252 10256 10258 10258 10258 10260 10264 10268 10269 10268 10267 10265 10264 10265 10265 10264 10263 10263 10263 10263 10263 10262 10261 10260 10260 10260 10259 10259
10299 10298 10297 10296 10296 10295 10293 10292 10290 10289 10287 10285 10284 10282 10281 10279 10277 10275 10274 10272 10270 10268 10265 10264 10264 10265 10267 10264 10260 10257 10257 10256 10256 10255 10255 10256 10256 10255 10254 10251 10247 10246 10248 10249 10249 10251 10253 10254 10254 10253 10252 10251 10250 10249 10247 10244 10243 10246 10248 10249 10249 10251 10254 10258 10259 10260 10259 10257 10255 10255 10256 10257 10257 10256 10256 10256 10257 10256 10255 10254 10254 10253 10253 10252 10252
10285 10285 10284 10284 10283 10282 10280 10279 10277 10276 10274 10272 10271 10269 10268 10266 10265 10263 10262 10260 10259 10257 10255 10252 10248 10248 10249 10250 10249 10246 10245 10244 10244 10243 10243 10244 10244 10242 10241 10238 10235 10234 10236 10239 10240 10241 10242 10242 10242 10241 10240 10240 10239 10238 10236 10235 10235 10237 10239 10240 10242 10246 10248 10250 10250 10249 10249 10248 10247 10247 10249 10249 10249 10248 10249 10249 10250 10249 10249 10248 10248 10248 10247 10246 10246
10272 10272 10272 10271 10270 10269 10268 10266 10265 10263 10261 10260 10258 10257 10256 10254 10253 10251 10250 10249 10247 10245 10243 10240 10238 10235 10235 10236 10236 10235 10234 10233 10233 10232 10232 10232 10232 10230 10229 10226 10224 10223 10226 10229 10231 10231 10231 10230 10230 10230 10230 10230 10229 10228 10226 10224 10224 10226 10229 10233 10237 10240 10241 10240 10239 10239 10240 10239 10239 10240 10242 10242 10242 10242 10242 10243 10243 10243 10242 10242 10243 10242 10242 10241 10240
10260 10260 10259 10259 10258 10257 10256 10255 10253 10252 10250 10248 10247 10246 10245 10243 10242 10240 10239 10238 10236 10234 10231 10229 10228 10226 10224 10223 10223 10224 10223 10222 10221 10221 10220 10220 10220 10220 10218 10217 10215 10215 10217 10219 10221 10222 10221 10219 10219 10220 10220 10219 10218 10217 10216 10215 10215 10218 10222 10227 10231 10231 10230 10230 10230 10231 10231 10231 10232 10233 10234 10235 10235 10235 10236 10237 10237 10236 10236 10237 10237 10237 10237 10236 10235
10249 10249 10248 10248 10247 10246 10245 10244 10242 10241 10239 10238 10237 10235 10234 10233 10231 10230 10229 10227 10225 10222 10220 10219 10218 10216 10214 10212 10212 10212 10212 10212 10211 10209 10208 10209 10210 10210 10210 10208 10206 10206 10207 10209 10212 10212 10210 10208 10208 10209 10209 10209 10209 10208 10207 10206 10208 10212 10217 10221 10223 10222 10221 10221 10222 10222 10223 10223 10224 10225 10226 10227 10228 10228 10230 10230 10230 10230 10231 10231 10231 10231 10231 10231 10230
10240 10239 10238 10237 10236 10235 10234 10233 10232 10231 10229 10228 10227 10225 10224 10223 10222 10220 10219 10217 10215 10212 10210 10209 10208 10207 10205 10203 10202 10201 10201 10201 10200 10199 10198 10199 10201 10201 10200 10198 10197 10197 10199 10201 10202 10201 10199 10198 10198 10199 10200 10201 10201 10199 10199 10201 10204 10207 10211 10214 10214 10213 10213 10213 10214 10214 10214 10215 10216 10217 10218 10220 10221 10222 10223 10224 10224 10225 10226 10226 10226 10226 10226 10226 10225
10230 10229 10228 10227 10226 10225 10224 10223 10222 10221 10220 10218 10217 10215 10214 10213 10213 10211 10210 10208 10206 10203 10201 10200 10199 10198 10196 10195 10194 10192 10191 10191 10190 10189 10189 10190 10191 10191 10190 10189 10189 10189 10191 10192 10192 10191 10190 10190 10190 10190 10191 10192 10193 10193 10194 10196 10199 10201 10203 10204 10204 10205 10206 10206 10206 10206 10206 10207 10209 10210 10212 10214 10215 10216 10217 10218 10218 10219 10220 10221 10221 10221 10221 10221 10221
10221 10220 10219 10218 10217 10216 10215 10214 10212 10211 10210 10208 10207 10205 10204 10204 10203 10202 10201 10199 10197 10195 10193 10191 10190 10190 10188 10187 10185 10184 10183 10181 10181 10180 10180 10181 10181 10181 10180 10180 10180 10181 10182 10182 10182 10182 10181 10182 10182 10182 10183 10185 10187 10188 10188 10190 10191 10193 10194 10195 10195 10197 10198 10199 10199 10199 10199 10200 10202 10205 10207 10208 10209 10211 10212 10212 10213 10214 10215 10216 10216 10216 10217 10217 10216
10211 10211 10210 10209 10208 10207 10206 10205 10204 10202 10201 10199 10198 10196 10195 10195 10194 10193 10192 10190 10189 10187 10185 10183 10182 10181 10180 10179 10178 10176 10175 10173 10172 10172 10172 10172 10172 10172 10172 10172 10172 10172 10173 10173 10173 10173 10174 10175 10175 10176 10177 10179 10180 10180 10180 10181 10183 10185 10187 10188 10188 10189 10190 10191 10191 10191 10191 10192 10196 10199 10201 10202 10204 10205 10206 10207 10208 10209 10210 10211 10211 10212 10212 10212 10212
10202 10202 10201 10200 10199 10198 10197 10196 10195 10193 10192 10191 10189 10188 10187 10186 10186 10185 10184 10182 10181 10180 10178 10176 10174 10174 10173 10172 10170 10169 10168 10166 10165 10165 10164 10164 10164 10164 10164 10164 10164 10164 10165 10165 10166 10167 10168 10168 10169 10170 10171 10171 10171 10171 10172 10174 10176 10178 10180 10180 10181 10181 10182 10182 10182 10182 10184 10188 10192 10194 10196 10197 10198 10199 10201 10202 10203 10204 10205 10206 10206 10207 10207 10208 10208
10194 10193 10192 10191 10191 10190 10189 10188 10186 10185 10184 10183 10182 10181 10179 10178 10177 10177 10176 10175 10174 10172 10171 10169 10168 10167 10166 10165 10163 10162 10160 10159 10158 10158 10158 10158 10158 10158 10157 10157 10157 10157 10157 10158 10159 10161 10161 10162 10163 10164 10164 10165 10165 10165 10166 10167 10169 10171 10172 10173 10173 10174 10174 10174 10175 10177 10180 10184 10188 10189 10190 10191 10193 10194 10195 10197 10198 10199 10200 10201 10201 10202 10203 10203 10204
10185 10185 10184 10183 10183 10182 10181 10180 10178 10177 10176 10176 10175 10174 10172 10171 10170 10169 10168 10167 10166 10165 10164 10162 10161 10160 10159 10158 10157 10155 10154 10153 10152 10151 10151 10151 10151 10152 10152 10151 10151 10151 10151 10152 10154 10155 10155 10156 10157 10158 10159 10159 10160 10160 10160 10161 10162 10164 10165 10165 10166 10167 10167 10168 10170 10174 10178 10180 10182 10183 10184 10186 10188 10189 10190 10192 10193 10194 10195 10196 10197 10198 10198 10199 10200
10177 10177 10176 10176 10175 10174 10174 10173 10172 10171 10169 10169 10168 10167 10165 10164 10163 10162 10161 10161 10160 10158 10157 10156 10155 10154 10153 10151 10150 10149 10148 10147 10146 10146 10145 10145 10145 10146 10146 10146 10146 10146 10146 10147 10148 10149 10149 10150 10151 10152 10153 10154 10154 10154 10155 10155 10156 10157 10158 10159 10160 10160 10162 10164 10168 10171 10174 10175 10177 10178 10179 10181 10183 10184 10185 10186 10187 10189 10190 10191 10192 10193 10194 10195 10195
10170 10169 10169 10169 10168 10168 10167 10166 10165 10164 10163 10162 10162 10161 10159 10158 10156 10155 10154 10154 10154 10153 10151 10149 10148 10147 10147 10146 10145 10143 10142 10141 10141 10140 10140 10140 10139 10140 10140 10141 10141 10141 10142 10142 10142 10143 10144 10145 10145 10146 10146 10147 10148 10148 10149 10150 10151 10151 10152 10153 10155 10156 10158 10161 10164 10167 10169 10170 10172 10173 10175 10176 10178 10179 10180 10181 10183 10184 10185 10187 10188 10189 10190 10190 10191
10163 10163 10162 10162 10161 10161 10161 10160 10159 10158 10158 10157 10156 10155 10153 10152 10151 10149 10148 10147 10147 10147 10146 10144 10143 10142 10141 10140 10139 10138 10137 10136 10135 10135 10134 10134 10134 10134 10134 10135 10136 10136 10136 10136 10137 10137 10138 10139 10139 10140 10140 10141 10142 10143 10144 10144 10145 10147 10148 10149 10151 10152 10154 10156 10159 10161 10163 10165 10167 10168 10170 10171 10172 10174 10175 10177 10178 10179 10181 10182 10183 10184 10185 10186 10187
10157 10156 10155 10155 10155 10154 10154 10154 10153 10153 10152 10151 10150 10149 10148 10146 10145 10144 10143 10142 10141 10141 10141 10140 10138 10136 10135 10134 10134 10133 10132 10132 10131 10130 10129 10129 10129 10129 10129 10130 10130 10131 10131 10131 10131 10132 10132 10133 10134 10134 10135 10135 10136 10137 10138 10139 10141 10142 10144 10145 10146 10147 10149 10151 10154 10156 10158 10160 10162 10163 10165 10166 10167 10169 10171 10172 10174 10175 10176 10177 10179 10180 10181 10182 10183